Tracking 19164 objects as of 21-May-2018
HD Live streaming from Space Station
objects crossing your sky now

COSMOS 1052

Track COSMOS 1052 now!
10-day predictions
COSMOS 1052 is classified as:


NORAD ID: 11129
Int'l Code: 1978-109B
Perigee: 1,417.1 km
Apogee: 1,495.5 km
Inclination: 74.0 °
Period: 114.9 minutes
Semi major axis: 7827 km
RCS: 0.7004 m2 (medium)
Launch date: December 5, 1978
Source: Commonwealth of Independent States (former USSR) (CIS)
Launch site: PLESETSK MISSILE AND SPACE COMPLEX (PKMTR)
aabbcc
Your satellite tracking list
Your tracking list is empty




NASA's NSSDC Master Catalog

Two Line Element Set (TLE):
1 11129U 78109B   18140.46787230 -.00000022 +00000-0 -35125-4 0  9996
2 11129 074.0137 141.5222 0050097 289.7492 225.2195 12.53680023805624
Source of the keplerian elements: AFSPC